Find Starlink 30347

NORAD ID: 57699 Int'l Des: 2023-129 Owner: SPXS Country: US Constellation: starlink operational
LEOCIRCULAR

リアルタイム位置

3D地球を読み込み中...

Starlink 30347について

説明を読み込み中...

次回通過

Passes for default location (London). Set your location on the main map for personalized predictions.

高度履歴

Loading altitude history...

軌道要素

1 57699U 23129B 26127.72860213 -.00001084 00000-0 -29888-4 0 9994
2 57699 43.0019 133.2470 0000577 302.1543 57.9252 15.27570942149840
Epoch: May 7, 2026 • Age: 12 hours

現在のステータス

高度 495.9 km
速度 7.62 km/s
衛星直下点 -42.72°S, 99.15°E
打ち上げ日 Aug 27, 2023
運用期間 2.6 years
タイプ internet

技術仕様

分類 Payload
質量 730.00 kg
乾燥質量 700.00 kg
総質量 730.00 kg
長さ 0.30 m
直径 4.10 m
スパン 29.00 m
形状 Box + pan
製造者 SPXS
バスタイプ Starlink V2M
フェーズステータス In Orbit
所有者/国 SPXS/US

Most Searched